NASA859 KMGE-KORL

Flight info

Callsign NASA859
Flight time 1h 2m
Altitude 55000
Route HUSKY T425 CROCS MMOSS SHREK2
Aircraft X59/H-SDGHITUY/LB2

Departure

Time 2026-05-04 23:29
Airport Dobbins Air Reserve Base (KMGE)

Arrival

Time 2026-05-05 00:31
Airport Orlando Executive Airport (KORL)
Time Latitude Longitude Altitude Speed Heading
2026-05-04 23:28 33.90977 -84.50235 1071 ft 0 kts 104°
2026-05-04 23:28 33.90976 -84.50226 1071 ft 8 kts 99°
2026-05-04 23:28 33.91077 -84.50141 1071 ft 23 kts 359°
2026-05-04 23:29 33.91170 -84.50234 1071 ft 14 kts 293°
2026-05-04 23:29 33.91279 -84.50625 1071 ft 135 kts 285°
2026-05-04 23:29 33.91689 -84.52496 1124 ft 311 kts 284°
2026-05-04 23:29 33.92297 -84.55076 2359 ft 350 kts 287°
2026-05-04 23:30 33.93504 -84.57751 3572 ft 377 kts 308°
2026-05-04 23:30 33.95491 -84.59789 4776 ft 388 kts 329°
2026-05-04 23:30 33.98040 -84.60906 5995 ft 400 kts 349°
2026-05-04 23:30 34.00858 -84.60880 7222 ft 413 kts 10°
2026-05-04 23:31 34.03566 -84.59648 8444 ft 426 kts 30°
2026-05-04 23:31 34.05848 -84.57333 9664 ft 439 kts 49°
2026-05-04 23:31 34.07378 -84.54254 10846 ft 428 kts 68°
2026-05-04 23:31 34.07953 -84.50694 12066 ft 458 kts 88°
2026-05-04 23:32 34.07511 -84.46667 13344 ft 493 kts 105°
2026-05-04 23:32 34.06101 -84.42989 14526 ft 493 kts 122°
2026-05-04 23:32 34.03774 -84.39907 15747 ft 510 kts 140°
2026-05-04 23:32 34.00762 -84.37708 16980 ft 527 kts 153°
2026-05-04 23:33 33.97432 -84.35722 18262 ft 545 kts 154°
2026-05-04 23:33 33.94038 -84.33717 19506 ft 562 kts 154°
2026-05-04 23:33 33.90929 -84.31886 20628 ft 549 kts 154°
2026-05-04 23:33 33.87563 -84.29906 21849 ft 514 kts 154°
2026-05-04 23:34 33.84380 -84.28033 23070 ft 513 kts 154°
2026-05-04 23:34 33.81194 -84.26160 24314 ft 513 kts 154°
2026-05-04 23:34 33.78018 -84.24294 25556 ft 510 kts 154°
2026-05-04 23:34 33.74854 -84.22434 26797 ft 506 kts 154°
2026-05-04 23:35 33.71692 -84.20581 28051 ft 511 kts 154°
2026-05-04 23:35 33.68454 -84.18682 29324 ft 520 kts 154°
2026-05-04 23:35 33.65225 -84.16790 30565 ft 527 kts 154°
2026-05-04 23:35 33.61944 -84.14868 31811 ft 532 kts 154°
2026-05-04 23:36 33.58585 -84.12904 33075 ft 534 kts 154°
2026-05-04 23:36 33.55287 -84.10976 34312 ft 532 kts 154°
2026-05-04 23:36 33.52001 -84.09056 35546 ft 529 kts 154°
2026-05-04 23:36 33.48721 -84.07143 36785 ft 523 kts 154°
2026-05-04 23:37 33.45409 -84.05211 38033 ft 534 kts 154°
2026-05-04 23:37 33.42141 -84.03307 39246 ft 535 kts 154°
2026-05-04 23:37 33.38787 -84.01354 40497 ft 534 kts 154°
2026-05-04 23:37 33.35492 -83.99424 41729 ft 531 kts 152°
2026-05-04 23:38 33.32574 -83.96778 42947 ft 529 kts 133°
2026-05-04 23:38 33.30193 -83.93259 44241 ft 551 kts 128°
2026-05-04 23:38 33.27811 -83.89602 45489 ft 557 kts 128°
2026-05-04 23:38 33.25384 -83.85991 46727 ft 557 kts 129°
2026-05-04 23:39 33.22980 -83.82458 47948 ft 555 kts 129°
2026-05-04 23:39 33.20557 -83.78871 49193 ft 550 kts 129°
2026-05-04 23:39 33.18200 -83.75365 50420 ft 545 kts 128°
2026-05-04 23:39 33.15819 -83.71824 51652 ft 556 kts 128°
2026-05-04 23:40 33.13371 -83.68184 52904 ft 583 kts 128°
2026-05-04 23:40 33.10758 -83.64301 54091 ft 610 kts 128°
2026-05-04 23:40 33.08009 -83.60203 54403 ft 645 kts 128°
2026-05-04 23:40 33.05296 -83.56063 54664 ft 641 kts 128°
2026-05-04 23:41 33.02539 -83.51862 54917 ft 639 kts 128°
2026-05-04 23:41 32.99769 -83.47641 54966 ft 641 kts 128°
2026-05-04 23:41 32.94261 -83.39364 55015 ft 643 kts 128°
2026-05-04 23:42 32.88553 -83.31251 54997 ft 644 kts 134°
2026-05-04 23:42 32.82322 -83.23430 55022 ft 647 kts 134°
2026-05-04 23:43 32.76107 -83.15638 54975 ft 649 kts 134°
2026-05-04 23:43 32.69856 -83.07816 55027 ft 651 kts 133°
2026-05-04 23:44 32.63594 -82.99992 54977 ft 654 kts 133°
2026-05-04 23:44 32.57297 -82.92140 55021 ft 656 kts 133°
2026-05-04 23:45 32.50984 -82.84284 54985 ft 660 kts 133°
2026-05-04 23:45 32.43874 -82.77725 55078 ft 651 kts 156°
2026-05-04 23:46 32.35163 -82.74635 55056 ft 653 kts 165°
2026-05-04 23:46 32.30799 -82.73257 54840 ft 651 kts 165°
2026-05-04 23:46 32.26470 -82.71896 55301 ft 649 kts 165°
2026-05-04 23:47 32.22007 -82.70499 54292 ft 665 kts 165°
2026-05-04 23:47 32.17551 -82.69110 54088 ft 672 kts 165°
2026-05-04 23:47 32.12998 -82.67698 53204 ft 674 kts 165°
2026-05-04 23:47 32.08521 -82.66312 52290 ft 649 kts 165°
2026-05-04 23:48 32.04279 -82.65004 51391 ft 622 kts 165°
2026-05-04 23:48 32.00055 -82.63706 50466 ft 614 kts 165°
2026-05-04 23:48 31.95923 -82.62438 49571 ft 612 kts 165°
2026-05-04 23:48 31.91851 -82.61192 48688 ft 611 kts 165°
2026-05-04 23:49 31.87791 -82.59952 47805 ft 610 kts 165°
2026-05-04 23:49 31.83610 -82.58678 46896 ft 609 kts 165°
2026-05-04 23:49 31.79524 -82.57434 46032 ft 608 kts 165°
2026-05-04 23:49 31.75455 -82.56198 45194 ft 608 kts 165°
2026-05-04 23:50 31.71322 -82.54945 44344 ft 607 kts 165°
2026-05-04 23:50 31.67247 -82.53711 43505 ft 607 kts 165°
2026-05-04 23:50 31.63111 -82.52460 42652 ft 607 kts 165°
2026-05-04 23:50 31.59003 -82.51220 41805 ft 607 kts 165°
2026-05-04 23:51 31.54925 -82.49989 40963 ft 607 kts 165°
2026-05-04 23:51 31.50858 -82.48763 40125 ft 605 kts 165°
2026-05-04 23:51 31.46859 -82.47562 39274 ft 591 kts 165°
2026-05-04 23:51 31.42901 -82.46371 38426 ft 582 kts 165°
2026-05-04 23:52 31.38959 -82.45188 38101 ft 592 kts 165°
2026-05-04 23:52 31.34789 -82.43937 38061 ft 629 kts 165°
2026-05-04 23:52 31.30467 -82.42641 38005 ft 644 kts 165°
2026-05-04 23:52 31.26064 -82.41325 37956 ft 653 kts 165°
2026-05-04 23:53 31.21697 -82.39694 37869 ft 647 kts 154°
2026-05-04 23:53 31.17952 -82.37005 38093 ft 618 kts 147°
2026-05-04 23:53 31.14398 -82.34301 38017 ft 603 kts 147°
2026-05-04 23:53 31.10928 -82.31657 38804 ft 591 kts 147°
2026-05-04 23:54 31.07412 -82.28979 38320 ft 627 kts 147°
2026-05-04 23:54 31.03701 -82.26153 38078 ft 648 kts 147°
2026-05-04 23:54 30.96052 -82.20335 38042 ft 659 kts 147°
2026-05-04 23:55 30.88308 -82.14452 37713 ft 670 kts 147°
2026-05-04 23:55 30.80387 -82.08447 36774 ft 674 kts 147°
2026-05-04 23:56 30.76440 -82.05459 36304 ft 673 kts 147°
2026-05-04 23:56 30.72547 -82.02516 35839 ft 671 kts 147°
2026-05-04 23:56 30.68663 -81.99579 35371 ft 668 kts 147°
2026-05-04 23:56 30.64783 -81.96649 34902 ft 661 kts 147°
2026-05-04 23:57 30.60898 -81.93720 34432 ft 656 kts 147°
2026-05-04 23:57 30.57083 -81.90844 34054 ft 651 kts 147°
2026-05-04 23:57 30.53252 -81.87959 33979 ft 641 kts 147°
2026-05-04 23:58 30.45769 -81.82332 34003 ft 640 kts 147°
2026-05-04 23:58 30.38327 -81.76746 34054 ft 638 kts 147°
2026-05-04 23:58 30.34670 -81.74006 33730 ft 590 kts 147°
2026-05-04 23:59 30.31449 -81.71593 32096 ft 540 kts 147°
2026-05-04 23:59 30.28326 -81.69256 31187 ft 531 kts 147°
2026-05-04 23:59 30.25248 -81.66954 30275 ft 525 kts 147°
2026-05-04 23:59 30.22029 -81.64551 29379 ft 569 kts 147°
2026-05-05 00:00 30.18709 -81.62071 28497 ft 574 kts 147°
2026-05-05 00:00 30.17592 -81.61238 28200 ft 574 kts 147°
2026-05-05 00:00 30.11974 -81.57046 26694 ft 573 kts 147°
2026-05-05 00:00 30.08633 -81.54558 25956 ft 575 kts 147°
2026-05-05 00:01 30.05315 -81.52088 25216 ft 573 kts 147°
2026-05-05 00:01 30.01936 -81.49576 24464 ft 573 kts 147°
2026-05-05 00:01 29.98597 -81.47095 23720 ft 575 kts 147°
2026-05-05 00:01 29.95299 -81.44648 22966 ft 544 kts 147°
2026-05-05 00:02 29.92195 -81.42345 22205 ft 522 kts 147°
2026-05-05 00:02 29.89210 -81.40132 21431 ft 502 kts 147°
2026-05-05 00:02 29.86311 -81.37985 20654 ft 484 kts 147°
2026-05-05 00:02 29.83535 -81.35928 19663 ft 473 kts 147°
2026-05-05 00:03 29.80796 -81.33904 18946 ft 452 kts 147°
2026-05-05 00:03 29.78236 -81.32011 18656 ft 425 kts 147°
2026-05-05 00:03 29.75786 -81.30201 17827 ft 417 kts 147°
2026-05-05 00:03 29.73357 -81.28406 16624 ft 418 kts 147°
2026-05-05 00:04 29.70919 -81.26606 15374 ft 418 kts 147°
2026-05-05 00:04 29.68496 -81.24822 14131 ft 418 kts 148°
2026-05-05 00:04 29.65840 -81.23481 12811 ft 416 kts 167°
2026-05-05 00:04 29.63062 -81.23210 12437 ft 389 kts 176°
2026-05-05 00:05 29.60445 -81.23056 12182 ft 364 kts 177°
2026-05-05 00:05 29.57984 -81.22915 11932 ft 342 kts 177°
2026-05-05 00:05 29.55662 -81.22782 11681 ft 322 kts 177°
2026-05-05 00:05 29.53484 -81.22658 11372 ft 306 kts 177°
2026-05-05 00:06 29.51415 -81.22540 11006 ft 292 kts 177°
2026-05-05 00:06 29.49381 -81.22425 10649 ft 292 kts 177°
2026-05-05 00:06 29.47315 -81.22308 10306 ft 298 kts 177°
2026-05-05 00:06 29.45215 -81.22189 9955 ft 296 kts 177°
2026-05-05 00:07 29.43194 -81.22074 9599 ft 290 kts 177°
2026-05-05 00:07 29.41148 -81.21960 9232 ft 284 kts 177°
2026-05-05 00:07 29.39190 -81.21850 8880 ft 283 kts 177°
2026-05-05 00:07 29.37175 -81.21736 8525 ft 285 kts 178°
2026-05-05 00:08 29.35184 -81.21650 8201 ft 285 kts 178°
2026-05-05 00:08 29.33216 -81.21567 8009 ft 281 kts 178°
2026-05-05 00:08 29.31253 -81.21484 7802 ft 277 kts 178°
2026-05-05 00:08 29.29353 -81.21403 7599 ft 274 kts 178°
2026-05-05 00:09 29.27435 -81.21322 7393 ft 271 kts 178°
2026-05-05 00:09 29.25547 -81.21243 7188 ft 268 kts 178°
2026-05-05 00:09 29.23674 -81.21131 6957 ft 268 kts 176°
2026-05-05 00:09 29.21797 -81.21004 6716 ft 273 kts 176°
2026-05-05 00:10 29.19867 -81.20873 6477 ft 281 kts 176°
2026-05-05 00:10 29.17944 -81.20741 6240 ft 286 kts 176°
2026-05-05 00:10 29.15919 -81.20604 5994 ft 290 kts 176°
2026-05-05 00:10 29.13929 -81.20470 5740 ft 281 kts 176°
2026-05-05 00:11 29.11999 -81.20342 5479 ft 276 kts 178°
2026-05-05 00:11 29.10084 -81.20316 5226 ft 273 kts 179°
2026-05-05 00:11 29.08188 -81.20297 5032 ft 269 kts 179°
2026-05-05 00:11 29.06323 -81.20278 5004 ft 268 kts 179°
2026-05-05 00:12 29.04476 -81.20259 5001 ft 268 kts 179°
2026-05-05 00:12 29.02595 -81.20304 4980 ft 272 kts 189°
2026-05-05 00:12 29.00827 -81.20807 5108 ft 241 kts 194°
2026-05-05 00:12 28.99221 -81.21289 4886 ft 244 kts 195°
2026-05-05 00:13 28.97631 -81.21767 4836 ft 233 kts 195°
2026-05-05 00:13 28.96112 -81.22225 4890 ft 224 kts 195°
2026-05-05 00:13 28.94572 -81.22690 4985 ft 226 kts 195°
2026-05-05 00:13 28.93054 -81.23148 4996 ft 225 kts 195°
2026-05-05 00:14 28.91883 -81.23498 4998 ft 224 kts 194°
2026-05-05 00:14 28.90083 -81.24023 4998 ft 223 kts 194°
2026-05-05 00:14 28.88609 -81.24451 4999 ft 222 kts 194°
2026-05-05 00:14 28.87097 -81.24892 4999 ft 221 kts 194°
2026-05-05 00:15 28.85614 -81.25324 4999 ft 220 kts 194°
2026-05-05 00:15 28.84131 -81.25757 4999 ft 219 kts 194°
2026-05-05 00:15 28.82634 -81.26194 4988 ft 222 kts 194°
2026-05-05 00:15 28.81150 -81.26627 4631 ft 222 kts 194°
2026-05-05 00:16 28.79651 -81.27064 4282 ft 222 kts 194°
2026-05-05 00:16 28.78151 -81.27501 3933 ft 223 kts 194°
2026-05-05 00:16 28.76657 -81.27937 3587 ft 223 kts 194°
2026-05-05 00:16 28.75152 -81.28376 3238 ft 224 kts 194°
2026-05-05 00:17 28.73659 -81.28812 2894 ft 224 kts 194°
2026-05-05 00:17 28.72132 -81.29258 2543 ft 225 kts 194°
2026-05-05 00:17 28.70618 -81.29700 2196 ft 223 kts 194°
2026-05-05 00:17 28.69148 -81.30130 2023 ft 216 kts 194°
2026-05-05 00:18 28.67710 -81.30550 2003 ft 215 kts 194°
2026-05-05 00:18 28.66253 -81.30976 1999 ft 214 kts 194°
2026-05-05 00:18 28.64935 -81.31667 1968 ft 211 kts 223°
2026-05-05 00:18 28.64146 -81.33086 2007 ft 212 kts 243°
2026-05-05 00:19 28.63496 -81.34587 1999 ft 212 kts 244°
2026-05-05 00:19 28.62837 -81.36111 2002 ft 216 kts 244°
2026-05-05 00:19 28.62171 -81.37653 2001 ft 217 kts 244°
2026-05-05 00:19 28.61503 -81.39198 2001 ft 218 kts 244°
2026-05-05 00:20 28.60824 -81.40771 2001 ft 220 kts 244°
2026-05-05 00:20 28.60161 -81.42309 1998 ft 218 kts 244°
2026-05-05 00:20 28.59489 -81.43864 1997 ft 215 kts 244°
2026-05-05 00:20 28.58824 -81.45407 1997 ft 213 kts 244°
2026-05-05 00:21 28.58177 -81.46909 1999 ft 213 kts 244°
2026-05-05 00:21 28.57510 -81.48459 2002 ft 215 kts 244°
2026-05-05 00:21 28.56857 -81.49972 2003 ft 218 kts 244°
2026-05-05 00:21 28.56173 -81.51563 2003 ft 219 kts 244°
2026-05-05 00:22 28.55510 -81.53104 1995 ft 215 kts 244°
2026-05-05 00:22 28.54861 -81.54614 1997 ft 213 kts 244°
2026-05-05 00:22 28.54202 -81.56146 1998 ft 212 kts 244°
2026-05-05 00:22 28.53558 -81.57644 2000 ft 213 kts 244°
2026-05-05 00:23 28.52907 -81.59161 2002 ft 216 kts 244°
2026-05-05 00:23 28.52240 -81.60715 2003 ft 218 kts 244°
2026-05-05 00:23 28.51568 -81.62280 1999 ft 217 kts 244°
2026-05-05 00:23 28.50916 -81.63799 1997 ft 214 kts 244°
2026-05-05 00:24 28.50248 -81.65329 1997 ft 218 kts 239°
2026-05-05 00:24 28.49100 -81.66424 1976 ft 219 kts 201°
2026-05-05 00:24 28.47599 -81.66528 1973 ft 220 kts 166°
2026-05-05 00:24 28.46198 -81.65813 2003 ft 214 kts 153°
2026-05-05 00:25 28.45009 -81.64973 1943 ft 190 kts 131°
2026-05-05 00:25 28.44525 -81.63638 1972 ft 184 kts 94°
2026-05-05 00:25 28.44705 -81.62208 1998 ft 182 kts 83°
2026-05-05 00:25 28.44851 -81.60766 2002 ft 184 kts 83°
2026-05-05 00:26 28.44997 -81.59321 2003 ft 186 kts 83°
2026-05-05 00:26 28.45157 -81.57840 2002 ft 188 kts 78°
2026-05-05 00:26 28.45633 -81.56457 2004 ft 187 kts 66°
2026-05-05 00:26 28.46129 -81.55177 1980 ft 170 kts 66°
2026-05-05 00:27 28.46596 -81.53974 1990 ft 166 kts 66°
2026-05-05 00:27 28.47064 -81.52769 1995 ft 165 kts 66°
2026-05-05 00:27 28.47520 -81.51595 1995 ft 162 kts 66°
2026-05-05 00:27 28.47980 -81.50407 2002 ft 165 kts 66°
2026-05-05 00:28 28.48450 -81.49195 2002 ft 165 kts 66°
2026-05-05 00:28 28.48906 -81.48017 1999 ft 164 kts 66°
2026-05-05 00:28 28.49366 -81.46827 2000 ft 165 kts 66°
2026-05-05 00:28 28.49829 -81.45628 2000 ft 165 kts 66°
2026-05-05 00:29 28.50288 -81.44440 2001 ft 166 kts 66°
2026-05-05 00:29 28.50761 -81.43213 1846 ft 171 kts 66°
2026-05-05 00:29 28.51242 -81.41962 1633 ft 176 kts 66°
2026-05-05 00:29 28.51702 -81.40768 1390 ft 157 kts 66°
2026-05-05 00:30 28.52138 -81.39630 1197 ft 161 kts 66°
2026-05-05 00:30 28.52587 -81.38457 986 ft 163 kts 66°
2026-05-05 00:30 28.53043 -81.37261 767 ft 166 kts 66°
2026-05-05 00:30 28.53505 -81.36047 537 ft 162 kts 66°
2026-05-05 00:31 28.53951 -81.34869 328 ft 160 kts 67°
2026-05-05 00:31 28.54349 -81.33761 109 ft 143 kts 69°
2026-05-05 00:31 28.54684 -81.32848 109 ft 108 kts 66°
2026-05-05 00:31 28.54857 -81.32413 109 ft 14 kts 65°
2026-05-05 00:32 28.54921 -81.32307 108 ft 14 kts 15°
2026-05-05 00:32 28.54991 -81.32329 109 ft 5 kts 336°
2026-05-05 00:32 28.55008 -81.32337 109 ft 0 kts 335°
2026-05-05 00:32 28.55010 -81.32338 109 ft 0 kts 335°
2026-05-05 00:33 28.55012 -81.32340 109 ft 0 kts 335°
2026-05-05 00:33 28.55014 -81.32341 109 ft 1 kts 325°
2026-05-05 00:33 28.55020 -81.32364 108 ft 2 kts 266°
2026-05-05 00:33 28.55003 -81.32424 108 ft 7 kts 247°
2026-05-05 00:34 28.54980 -81.32484 109 ft 11 kts 246°
2026-05-05 00:34 28.54940 -81.32595 109 ft 15 kts 248°
2026-05-05 00:34 28.54908 -81.32683 109 ft 8 kts 248°
2026-05-05 00:34 28.54895 -81.32721 109 ft 3 kts 249°
2026-05-05 00:35 28.54874 -81.32777 109 ft 16 kts 248°
2026-05-05 00:35 28.54835 -81.32878 109 ft 11 kts 243°
2026-05-05 00:35 28.54795 -81.32976 109 ft 11 kts 246°
2026-05-05 00:35 28.54770 -81.33039 109 ft 8 kts 246°
2026-05-05 00:36 28.54736 -81.33129 109 ft 12 kts 246°
2026-05-05 00:36 28.54722 -81.33203 109 ft 9 kts 263°
2026-05-05 00:36 28.54713 -81.33304 107 ft 13 kts 265°
2026-05-05 00:36 28.54704 -81.33408 106 ft 11 kts 263°
2026-05-05 00:37 28.54696 -81.33500 106 ft 9 kts 265°
2026-05-05 00:37 28.54686 -81.33583 106 ft 11 kts 262°
2026-05-05 00:37 28.54649 -81.33649 106 ft 11 kts 212°
2026-05-05 00:37 28.54611 -81.33634 106 ft 0 kts 131°
2026-05-05 00:39 28.54610 -81.33634 105 ft 0 kts 128°